Date String (YYYY-MM-DD hh:mm:ss) UTC,Instrument flags,absolute air pressure of the measurement (hPa),sample flow rate (lpm),inlet stack bypass flow (lpm),air temperature of the measurement (°C),ambient temperature measured by the external sensor (°C),aerosol sample conditioner tube jacket temperature (°C),OPC LED temperature (°C),internal box temperature (°C),relative humidity of the measurement (%),span deviation,mass concentration of particles derived from Lorenz-Mie calculation of OPC scattering (μg/m³),mass concentration of particles derived from Lorenz-Mie calculation of OPC scattering (μg/m³),mass concentration of particles derived from Lorenz-Mie calculation of OPC scattering (μg/m³)
DateTimeUTC,F1_M11,P_M11,Q1_M11,Q2_M11,T1_M11,T2_M11,T3_M11,T4_M11,T5_M11,U1_M11,ZSPAN_M11,X0_M11,X2_M11,X1_M11
2024-05-21 21:00:00,SystemResetWarning,0824.9,4.99,000.00,028.3,027.6,000.0,036.6,030.1,019.7,0000.0,0007.90,0003.93,0003.55
2024-05-21 21:01:00,SystemResetWarning,0824.9,4.99,000.00,028.3,027.6,000.0,036.6,030.1,019.8,0000.0,0007.66,0004.03,0003.66
2024-05-21 21:02:00,SystemResetWarning,0824.9,5.01,000.00,028.3,027.6,000.0,036.6,030.1,019.7,0000.0,0007.75,0004.14,0003.76
2024-05-21 21:03:00,SystemResetWarning,0824.9,5.01,000.00,028.3,027.6,000.0,036.6,030.1,019.6,0000.0,0007.89,0004.23,0003.85
2024-05-21 21:04:00,SystemResetWarning,0824.9,4.99,000.00,028.3,027.6,000.0,036.6,030.1,019.6,0000.0,0007.98,0004.33,0003.95
2024-05-21 21:05:00,SystemResetWarning,0824.9,4.99,000.00,028.3,027.7,000.0,036.6,030.1,019.7,0000.0,0008.22,0004.44,0004.03
2024-05-21 21:06:00,SystemResetWarning,0824.9,5.01,000.00,028.3,027.7,000.0,036.7,030.1,019.9,0000.0,0008.49,0004.54,0004.11
2024-05-21 21:07:00,SystemResetWarning,0824.9,5.02,000.00,028.4,027.7,000.0,036.7,030.1,019.8,0000.0,0008.76,0004.60,0004.16
2024-05-21 21:08:00,SystemResetWarning,0824.9,5.00,000.00,028.4,027.7,000.0,036.7,030.1,019.7,0000.0,0008.47,0004.61,0004.19
2024-05-21 21:09:00,SystemResetWarning,0824.9,4.99,000.00,028.4,027.7,000.0,036.7,030.1,019.8,0000.0,0008.45,0004.62,0004.20
2024-05-21 21:10:00,SystemResetWarning,0824.9,5.00,000.00,028.4,027.7,000.0,036.7,030.2,020.1,0000.0,0008.48,0004.64,0004.20
2024-05-21 21:11:00,SystemResetWarning,0824.9,5.00,000.00,028.4,027.7,000.0,036.7,030.2,020.0,0000.0,0008.60,0004.62,0004.20
2024-05-21 21:12:00,SystemResetWarning,0824.9,5.00,000.00,028.4,027.7,000.0,036.7,030.2,020.1,0000.0,0009.08,0004.62,0004.21
2024-05-21 21:13:00,SystemResetWarning,0824.9,5.00,000.00,028.4,027.7,000.0,036.7,030.2,020.4,0000.0,0009.55,0004.61,0004.22
2024-05-21 21:14:00,SystemResetWarning,0824.9,5.02,000.00,028.4,027.7,000.0,036.7,030.2,020.2,0000.0,0009.62,0004.61,0004.22
2024-05-21 21:15:00,SystemResetWarning,0824.9,5.00,000.00,028.4,027.7,000.0,036.7,030.2,020.1,0000.0,0009.99,0004.64,0004.21
2024-05-21 21:16:00,SystemResetWarning,0824.9,4.98,000.00,028.4,027.7,000.0,036.7,030.2,020.5,0000.0,0010.13,0004.65,0004.21
2024-05-21 21:17:00,SystemResetWarning,0824.8,5.00,000.00,028.4,027.7,000.0,036.7,030.2,020.8,0000.0,0009.93,0004.62,0004.21
2024-05-21 21:18:00,SystemResetWarning,0824.7,5.01,000.00,028.4,027.7,000.0,036.8,030.2,020.9,0000.0,0009.47,0004.61,0004.21
2024-05-21 21:19:00,SystemResetWarning,0824.7,5.01,000.00,028.4,027.7,000.0,036.8,030.2,020.6,0000.0,0009.50,0004.64,0004.22
2024-05-21 21:20:00,SystemResetWarning,0824.7,5.00,000.00,028.4,027.7,000.0,036.8,030.2,020.3,0000.0,0009.52,0004.68,0004.27
2024-05-21 21:21:00,SystemResetWarning,0824.7,5.00,000.00,028.4,027.7,000.0,036.8,030.2,020.2,0000.0,0009.39,0004.68,0004.29
2024-05-21 21:22:00,SystemResetWarning,0824.8,5.00,000.00,028.4,027.7,000.0,036.8,030.2,020.4,0000.0,0009.03,0004.69,0004.30
2024-05-21 21:23:00,SystemResetWarning,0824.8,5.00,000.00,028.4,027.7,000.0,036.8,030.2,020.7,0000.0,0008.49,0004.68,0004.29
2024-05-21 21:24:00,SystemResetWarning,0824.7,5.00,000.00,028.4,027.7,000.0,036.8,030.2,020.6,0000.0,0008.17,0004.67,0004.29
2024-05-21 21:25:00,SystemResetWarning,0824.8,5.00,000.00,028.4,027.7,000.0,036.8,030.2,020.7,0000.0,0008.42,0004.68,0004.29
2024-05-21 21:26:00,SystemResetWarning,0824.8,5.00,000.00,028.5,027.7,000.0,036.8,030.2,020.5,0000.0,0008.32,0004.65,0004.30
2024-05-21 21:27:00,SystemResetWarning,0824.8,5.00,000.00,028.5,027.7,000.0,036.8,030.2,020.5,0000.0,0008.92,0004.64,0004.31
2024-05-21 21:28:00,SystemResetWarning,0824.7,5.00,000.00,028.5,027.7,000.0,036.8,030.2,020.5,0000.0,0009.27,0004.68,0004.33
2024-05-21 21:29:00,SystemResetWarning,0824.7,5.00,000.00,028.5,027.7,000.0,036.8,030.2,020.8,0000.0,0009.87,0004.72,0004.35
2024-05-21 21:30:00,SystemResetWarning,0824.8,5.00,000.00,028.5,027.7,000.0,036.8,030.2,020.8,0000.0,0010.18,0004.74,0004.37
2024-05-21 21:31:00,SystemResetWarning,0824.9,5.00,000.00,028.5,027.7,000.0,036.8,030.2,021.0,0000.0,0010.79,0004.74,0004.38
2024-05-21 21:32:00,SystemResetWarning,0824.9,5.00,000.00,028.5,027.7,000.0,036.8,030.2,021.2,0000.0,0010.85,0004.78,0004.39
2024-05-21 21:33:00,SystemResetWarning,0824.9,5.00,000.00,028.5,027.7,000.0,036.8,030.2,021.0,0000.0,0010.93,0004.84,0004.41
2024-05-21 21:34:00,SystemResetWarning,0824.9,5.00,000.00,028.5,027.7,000.0,036.8,030.2,021.1,0000.0,0011.11,0004.89,0004.44
2024-05-21 21:35:00,SystemResetWarning,0824.9,5.00,000.00,028.5,027.7,000.0,036.8,030.2,021.3,0000.0,0011.07,0004.97,0004.47
2024-05-21 21:36:00,SystemResetWarning,0825.0,5.00,000.00,028.4,027.7,000.0,036.8,030.2,021.2,0000.0,0010.74,0005.00,0004.50
2024-05-21 21:37:00,SystemResetWarning,0825.0,5.00,000.00,028.4,027.7,000.0,036.8,030.2,021.2,0000.0,0010.75,0005.08,0004.53
2024-05-21 21:38:00,SystemResetWarning,0825.0,5.00,000.00,028.4,027.6,000.0,036.8,030.1,021.2,0000.0,0010.13,0005.17,0004.58
2024-05-21 21:39:00,SystemResetWarning,0825.0,5.00,000.00,028.4,027.6,000.0,036.8,030.2,021.2,0000.0,0010.58,0005.21,0004.62
2024-05-21 21:40:00,SystemResetWarning,0825.0,5.00,000.00,028.4,027.6,000.0,036.9,030.1,021.5,0000.0,0010.16,0005.23,0004.65
2024-05-21 21:41:00,SystemResetWarning,0825.0,5.00,000.00,028.4,027.6,000.0,036.9,030.1,021.2,0000.0,0009.97,0005.30,0004.67
2024-05-21 21:42:00,SystemResetWarning,0825.0,5.00,000.00,028.4,027.6,000.0,036.9,030.1,021.2,0000.0,0009.51,0005.36,0004.70
2024-05-21 21:43:00,SystemResetWarning,0825.1,5.00,000.00,028.4,027.6,000.0,036.8,030.1,021.5,0000.0,0009.55,0005.39,0004.74
2024-05-21 21:44:00,SystemResetWarning,0825.1,5.02,000.00,028.4,027.6,000.0,036.8,030.1,021.4,0000.0,0009.53,0005.38,0004.78
2024-05-21 21:45:00,SystemResetWarning,0825.1,5.00,000.00,028.4,027.5,000.0,036.8,030.1,021.5,0000.0,0009.70,0005.43,0004.81
2024-05-21 21:46:00,SystemResetWarning,0825.1,5.00,000.00,028.4,027.5,000.0,036.8,030.1,021.8,0000.0,0010.29,0005.44,0004.84
2024-05-21 21:47:00,SystemResetWarning,0825.0,4.99,000.00,028.4,027.6,000.0,036.8,030.1,021.8,0000.0,0010.81,0005.46,0004.87
2024-05-21 21:48:00,SystemResetWarning,0825.1,5.00,000.00,028.4,027.6,000.0,036.8,030.1,021.7,0000.0,0010.82,0005.47,0004.90
2024-05-21 21:49:00,SystemResetWarning,0825.1,5.00,000.00,028.4,027.6,000.0,036.8,030.1,021.8,0000.0,0010.67,0005.46,0004.91
2024-05-21 21:50:00,SystemResetWarning,0825.1,5.01,000.00,028.4,027.6,000.0,036.8,030.1,021.9,0000.0,0010.15,0005.49,0004.92
2024-05-21 21:51:00,SystemResetWarning,0825.1,5.01,000.00,028.4,027.6,000.0,036.8,030.2,021.8,0000.6,0009.96,0005.50,0004.93
2024-05-21 21:52:00,SystemResetWarning,0825.1,4.99,000.00,028.4,027.6,000.0,036.8,030.1,021.7,0001.4,0009.94,0005.49,0004.95
2024-05-21 21:53:00,SystemResetWarning,0825.1,5.00,000.00,028.4,027.6,000.0,036.8,030.1,021.8,0002.4,0009.86,0005.47,0004.96
2024-05-21 21:54:00,SystemResetWarning,0825.1,4.98,000.00,028.4,027.6,000.0,036.8,030.1,021.9,0003.1,0009.89,0005.48,0004.96
2024-05-21 21:55:00,SystemResetWarning,0825.1,5.00,000.00,028.4,027.6,000.0,036.8,030.1,021.9,0003.0,0010.28,0005.52,0004.97
2024-05-21 21:56:00,SystemResetWarning,0825.1,5.01,000.00,028.3,027.6,000.0,036.8,030.1,022.1,0003.7,0010.34,0005.53,0004.97
2024-05-21 21:57:00,SystemResetWarning,0825.1,5.00,000.00,028.3,027.6,000.0,036.8,030.1,022.2,0000.7,0010.17,0005.55,0004.97
2024-05-21 21:58:00,SystemResetWarning,0825.1,4.99,000.00,028.3,027.6,000.0,036.8,030.1,022.3,0000.0,0009.33,0005.57,0004.98
2024-05-21 21:59:00,SystemResetWarning,0825.1,4.99,000.00,028.3,027.6,000.0,036.8,030.1,022.4,0000.3,0009.13,0005.52,0004.97
